Regional Weather Roundup
Issued by NWS

Home | Current Version | Previous Version | Graphics & Text | Print | Product List | Glossary Off
Versions: 1 2 3 4 5 6 7 8 9 10 11 12 13 14 15 16 17 18 19 20 21 22 23 24 25 26 27 28 29 30 31 32 33 34 35 36 37 38 39 40 41 42 43 44 45 46 47 48 49 50

000
ASUS43 KTOP 240759
RWRKS

WEATHER ROUNDUP FOR KANSAS
NATIONAL WEATHER SERVICE GOODLAND KS
300 AM CDT THU JUL 24 2014

NOTE:  "FAIR" INDICATES FEW OR NO CLOUDS BELOW 12,000 FEET WITH NO
SIGNIFICANT WEATHER AND/OR OBSTRUCTIONS TO VISIBILITY.

KSZ001>006-013>018-027>032-041>047-240900-
NORTHWEST KANSAS

CITY           SKY/WX    TMP DP  RH WIND       PRES   REMARKS
GOODLAND       CLEAR     68  65  90 S14       30.17F
HAYS           CLEAR     66  57  72 SE5       30.13F
HILL CITY      CLEAR     67  62  84 E3        30.13F
RUSSELL        CLEAR     68  61  78 SE8       30.11F
$$

KSZ061>065-074>080-084>089-240900-
SOUTHWEST KANSAS

CITY           SKY/WX    TMP DP  RH WIND       PRES   REMARKS
DODGE CITY     CLEAR     72  65  78 SE9       30.15F
ELKHART          N/A     67  63  87 S7          N/A
GARDEN CITY    CLEAR     73  66  78 SE13      30.15F
GREAT BEND     CLEAR     68  63  83 CALM      30.12S
LIBERAL        CLEAR     75  66  73 SE9       30.16F
PRATT          CLEAR     72  63  73 S5        30.14F
$$

KSZ066>073-081>083-090>101-240900-
SOUTHEAST KANSAS

CITY           SKY/WX    TMP DP  RH WIND       PRES   REMARKS
CHANUTE        CLEAR     71  64  78 NE7       30.09F
COFFEYVILLE    CLEAR     68  66  93 CALM      30.06F
HUTCHINSON     CLEAR     71  62  73 E7        30.11F
MEDICINE LODGE   N/A     71  67  87 CALM      30.10F
NEWTON         CLEAR     66  59  77 E6        30.15S
PARSONS        CLEAR     71  65  81 CALM      30.08F
WICHITA INTL   CLEAR     72  65  78 E7        30.10F
WICHITA JABRA  CLEAR     67  64  90 CALM      30.11S
WINFIELD       CLEAR     71  67  87 NE5       30.10F
$$

KSZ007>012-019>026-033>040-048>060-102>105-240900-
NORTHEAST KANSAS

CITY           SKY/WX    TMP DP  RH WIND       PRES   REMARKS
CONCORDIA      CLEAR     65  63  93 SE6       30.12F
EMPORIA        CLEAR     66  64  93 NE5       30.11F
LAWRENCE       CLEAR     69  62  78 NE8       30.12F
MANHATTAN      PTCLDY    66  63  90 CALM      30.11F
OLATHE IND     CLEAR     69  62  78 E7        30.12F
OLATHE EXE     CLEAR     68  62  81 E7        30.11F
SALINA         CLEAR     71  63  75 SE5       30.11F
TOPEKA BILLARD CLEAR     70  64  81 E6        30.12S
TOPEKA FORBES  CLEAR     69  63  81 E6        30.11F
$$


USA.gov is the U.S. government's official web portal to all federal, state and local government web resources and services.